FW0261 Weather Reports


time (UTC)temp
C
wind
direction
speed
KPH
gust
KPH
rain 1hr
cm
rain 24hr
cm
rain mn
cm
humidity
%
barometer
mb
20260503180906 16 0 0.0 1.6 0.00 0.00 0.00 54 1020.1
20260503180007 16 122 0.0 1.6 0.00 0.00 0.00 54 1020.0
20260503175407 17 134 0.0 3.2 0.00 0.00 0.00 54 1019.9
20260503174506 17 163 0.0 3.2 0.00 0.00 0.00 53 1019.9
20260503173606 17 0 0.0 0.0 0.00 0.00 0.00 50 1019.9
20260503172706 17 0 0.0 0.0 0.00 0.00 0.00 51 1019.8
20260503171806 18 105 0.0 3.2 0.00 0.00 0.00 50 1019.9
20260503170906 18 99 0.0 3.2 0.00 0.00 0.00 48 1019.9
20260503150927 21 90 0.0 3.2 0.00 0.00 0.00 40 1020.2
20260503130906 26 75 0.0 4.8 0.00 0.00 0.00 35 1021.5
20260503080905 27 52 0.0 3.2 0.00 0.00 0.00 32 1022.5
20260503072705 27 0 0.0 0.0 0.00 0.00 0.00 35 1022.5
20260503071805 26 0 0.0 0.0 0.00 0.00 0.00 43 1022.6
20260503070926 24 0 0.0 0.0 0.00 0.00 0.00 49 1022.6
20260503054504 13 0 0.0 1.6 0.00 0.00 0.00 81 1022.5
20260503053604 13 0 0.0 0.0 0.00 0.00 0.00 82 1022.5
20260503052704 12 0 0.0 0.0 0.00 0.00 0.00 83 1022.4
20260503051804 12 82 0.0 3.2 0.00 0.00 0.00 88 1022.4
20260503050904 11 69 0.0 3.2 0.00 0.00 0.00 86 1022.3
20260503050005 11 349 0.0 3.2 0.00 0.00 0.00 82 1022.3
20260503045425 11 99 0.0 3.2 0.00 0.00 0.00 80 1022.2
20260503044504 11 0 0.0 1.6 0.00 0.00 0.00 77 1022.2
20260503043604 10 0 0.0 1.6 0.00 0.00 0.00 76 1022.0
20260503042704 10 0 0.0 0.0 0.00 0.00 0.00 75 1022.0
20260503041825 10 0 0.0 0.0 0.00 0.00 0.00 73 1021.8
20260503040904 10 0 0.0 0.0 0.00 0.00 0.00 73 1021.9
20260503040004 10 0 0.0 0.0 0.00 0.00 0.00 72 1021.9
20260503035404 10 0 0.0 0.0 0.00 0.00 0.00 72 1021.9
20260503034504 10 0 0.0 0.0 0.00 0.00 0.00 71 1022.0
20260503033604 10 0 0.0 0.0 0.00 0.00 0.00 71 1022.0
20260503032725 10 0 0.0 0.0 0.00 0.00 0.00 71 1022.0
20260503031804 11 0 0.0 0.0 0.00 0.00 0.00 71 1022.0
20260503030904 11 0 0.0 0.0 0.00 0.00 0.00 70 1021.9
20260503030004 11 0 0.0 0.0 0.00 0.00 0.00 70 1022.0
20260503025404 11 0 0.0 1.6 0.00 0.00 0.00 69 1022.0
20260503024504 11 0 0.0 1.6 0.00 0.00 0.00 68 1022.0
20260503023604 11 0 0.0 1.6 0.00 0.00 0.00 67 1022.1
20260503022704 12 0 0.0 1.6 0.00 0.00 0.00 66 1022.0
20260503021804 12 0 0.0 0.0 0.00 0.00 0.00 63 1022.1
20260503020904 12 0 0.0 0.0 0.00 0.00 0.00 60 1022.1
20260503020004 12 0 0.0 0.0 0.00 0.00 0.00 60 1022.1
20260503015404 12 0 0.0 0.0 0.00 0.00 0.00 60 1022.1
20260503014504 12 0 0.0 0.0 0.00 0.00 0.00 63 1022.2
20260503013604 12 0 0.0 0.0 0.00 0.00 0.00 63 1022.2
20260503012704 12 0 0.0 0.0 0.00 0.00 0.00 58 1022.2
20260503011804 12 0 0.0 0.0 0.00 0.00 0.00 56 1022.4
20260503010904 13 0 0.0 0.0 0.00 0.00 0.00 56 1022.4
20260503010004 13 0 0.0 0.0 0.00 0.00 0.00 55 1022.3
20260503005404 13 0 0.0 0.0 0.00 0.00 0.00 55 1022.5
20260503004525 13 0 0.0 0.0 0.00 0.00 0.00 55 1022.4
20260503003604 13 0 0.0 0.0 0.00 0.00 0.00 55 1022.6
20260503002704 13 0 0.0 0.0 0.00 0.00 0.00 56 1022.7
20260503001804 13 0 0.0 0.0 0.00 0.00 0.00 57 1022.8
20260503000925 13 0 0.0 0.0 0.00 0.00 0.00 58 1022.8
20260503000004 13 0 0.0 0.0 0.00 0.00 0.00 60 1022.9
20260502235404 12 0 0.0 0.0 0.00 0.00 0.00 60 1022.9
20260502234503 13 0 0.0 0.0 0.00 0.00 0.00 61 1022.8
20260502233604 13 0 0.0 0.0 0.00 0.00 0.00 62 1022.9
20260502232703 13 0 0.0 0.0 0.00 0.00 0.00 62 1023.0
20260502231803 13 0 0.0 0.0 0.00 0.00 0.00 63 1023.0
20260502230904 13 0 0.0 1.6 0.00 0.00 0.00 64 1023.1
20260502230004 13 0 0.0 0.0 0.00 0.00 0.00 64 1023.2
20260502225403 13 0 0.0 0.0 0.00 0.00 0.00 64 1023.1
20260502224503 13 0 0.0 0.0 0.00 0.00 0.00 64 1023.2
20260502223624 13 0 0.0 0.0 0.00 0.00 0.00 64 1023.2
20260502222703 13 0 0.0 0.0 0.00 0.00 0.00 64 1023.3
20260502221803 13 0 0.0 0.0 0.00 0.00 0.00 64 1023.3
20260502220903 13 0 0.0 0.0 0.00 0.00 0.00 64 1023.3
20260502220024 13 0 0.0 0.0 0.00 0.00 0.00 64 1023.3
20260502215403 13 0 0.0 0.0 0.00 0.00 0.00 64 1023.2
20260502214503 13 0 0.0 0.0 0.00 0.00 0.00 64 1023.4
20260502213603 13 0 0.0 0.0 0.00 0.00 0.00 63 1023.3
20260502212703 13 0 0.0 0.0 0.00 0.00 0.00 63 1023.3
20260502211803 13 0 0.0 0.0 0.00 0.00 0.00 63 1023.3
20260502210903 13 0 0.0 0.0 0.00 0.00 0.00 63 1023.3
20260502210003 13 0 0.0 0.0 0.00 0.00 0.00 63 1023.4
20260502205403 13 0 0.0 0.0 0.00 0.00 0.00 63 1023.4
20260502204503 13 0 0.0 0.0 0.00 0.00 0.00 63 1023.3
20260502203603 13 0 0.0 0.0 0.00 0.00 0.00 62 1023.4
20260502202705 13 0 0.0 0.0 0.00 0.00 0.00 62 1023.4
20260502201812 14 0 0.0 0.0 0.00 0.00 0.00 61 1023.5
20260502200933 14 0 0.0 0.0 0.00 0.00 0.00 61 1023.4
20260502200012 14 0 0.0 0.0 0.00 0.00 0.00 61 1023.4
20260502195412 14 0 0.0 0.0 0.00 0.00 0.00 60 1023.4
20260502194512 14 0 0.0 0.0 0.00 0.00 0.00 60 1023.3
20260502193633 15 0 0.0 0.0 0.00 0.00 0.00 60 1023.2
20260502192712 15 0 0.0 0.0 0.00 0.00 0.00 60 1023.2
20260502191811 15 0 0.0 0.0 0.00 0.00 0.00 59 1023.1
20260502190912 15 0 0.0 0.0 0.00 0.00 0.00 57 1022.9
20260502190014 15 0 0.0 0.0 0.00 0.00 0.00 57 1022.9
20260502185411 15 0 0.0 0.0 0.00 0.00 0.00 56 1022.8
20260502184511 16 0 0.0 0.0 0.00 0.00 0.00 56 1022.8
20260502183611 16 0 0.0 0.0 0.00 0.00 0.00 54 1022.7
20260502182733 16 0 0.0 0.0 0.00 0.00 0.00 53 1022.6
20260502181811 16 0 0.0 0.0 0.00 0.00 0.00 51 1022.6